[[{"header":{"parameterUnit":"m.s-1","parameterCategory":1,"la1":30.2991,"la2":30.254,"lo1":-89.0895,"lo2":-89.0444,"dy":0.0017,"dx":0.0017,"nx":28,"ny":28,"refTime":"2023-10-09T03:00:00:Z","depth":0,"parameterNumber":2,"parameterNumberName":"U-component_of_WINDS"},"data":[0,0,0,0,0,0,0,0,0,0,0,0,0,0,0,0,0,0,0,0,0,0,0,0,0,0,0,0,0,0,0,0,0,0,0,0,0,0,0,0,0,0,0,0,0,0,0,0,0,0,0,0,0,0,0,0,0,0,0.331,0.3309,0,0.325,0.325,0.3249,0.3202,0.3202,0.3201,0.3201,0.3138,0.3137,0.3136,0,0,0,0,0,0,0,0,0,0,0,0,0,0.338,0.3379,0.331,0.3309,0.3308,0.3251,0.325,0.3249,0.3202,0.3202,0.3201,0.32,0.3139,0.3137,0.3136,0,0,0,0,0,0,0,0,0,0,0,0,0,0.3338,0.3379,0.331,0.3278,0.3275,0.3251,0.325,0.3249,0.3202,0.3202,0.3201,0.32,0.3139,0.3137,0.3135,0.3138,0,0,0.313,0.3129,0,0,0,0,0,0,0,0,0.334,0.3335,0.3284,0.328,0.3276,0.3233,0.3251,0.3212,0.3202,0.323,0.3201,0.32,0.317,0.3166,0.3156,0.3135,0.3132,0.313,0.3129,0.3128,0.3127,0,0,0,0,0,0,0,0.3343,0.3338,0.3286,0.3283,0.3278,0.3266,0.3259,0.3244,0.3204,0.3227,0.3224,0.3217,0.3168,0.3158,0.3154,0.3131,0.313,0.3128,0.3127,0.3126,0.3107,0.3108,0,0,0,0,0,0,0.3352,0.334,0.3288,0.3285,0.3307,0.3265,0.3258,0.3248,0.3205,0.3197,0.3218,0.3215,0.3161,0.3156,0.3152,0.3151,0.3128,0.3126,0.3125,0.3107,0.3108,0.3108,0,0,0,0,0,0,0.3353,0.3347,0.3291,0.3311,0.3303,0.3265,0.3254,0.3247,0.3237,0.3198,0.319,0.3215,0.3161,0.3154,0.3141,0.3148,0.3125,0.3124,0.3106,0.3107,0.3108,0.315,0,0,0,0,0,0,0.3355,0.3348,0.335,0.3312,0.3302,0.3282,0.3254,0.3246,0.3234,0.323,0.3193,0.3186,0.316,0.3144,0.314,0.3145,0.3122,0.3105,0.3107,0.3108,0.3148,0.3152,0.3156,0,0,0,0,0,0.3358,0.3364,0.335,0.3344,0.3303,0.3283,0.3277,0.3247,0.3235,0.3235,0.321,0.3187,0.3148,0.3144,0.3138,0.3143,0.3105,0.3106,0.3108,0.3146,0.3152,0.3156,0,0,0,0,0,0,0.3403,0.3358,0.3343,0.3336,0.3314,0.3275,0.3275,0.3254,0.3234,0.3231,0.3194,0.3186,0.3177,0.3158,0.3154,0.3142,0.3123,0.3124,0.3155,0.316,0.3164,0.3169,0.3121,0,0,0,0,0,0.3413,0.3401,0.3361,0.336,0.3349,0.3314,0.3304,0.3283,0.3258,0.3248,0.3221,0.3197,0.3179,0.3168,0.315,0.3145,0.3135,0.3145,0.3149,0.3153,0.3154,0.3148,0.3152,0.3113,0.3113,0.3113,0,0,0.3432,0.3406,0.34,0.3368,0.3348,0.3335,0.3306,0.3294,0.3284,0.3246,0.3232,0.3211,0.3182,0.3173,0.3167,0.3157,0.3162,0.3155,0.3158,0.3157,0.315,0.3154,0.3157,0.3114,0.3113,0.3113,0,0,0.346,0.344,0.3435,0.3416,0.3386,0.3362,0.3361,0.3325,0.331,0.3295,0.3266,0.3252,0.3222,0.3202,0.3188,0.3207,0.3185,0.3201,0.3223,0.3218,0.3221,0.3224,0.323,0.3233,0.3202,0.3202,0.3202,0,0.3488,0.3468,0.3436,0.3425,0.3411,0.3376,0.337,0.3353,0.3318,0.3309,0.3298,0.3258,0.3236,0.3221,0.3226,0.3215,0.3212,0.3206,0.3224,0.3226,0.3228,0.3233,0.3236,0.3205,0.3204,0.3204,0.3204,0,0.3503,0.349,0.349,0.3457,0.3443,0.3436,0.3401,0.339,0.337,0.3347,0.3331,0.3303,0.3278,0.3272,0.3252,0.3254,0.3248,0.3231,0.3211,0.3234,0.3239,0.324,0.3208,0.3207,0.3206,0.3206,0,0,0.356,0.3508,0.3509,0.3493,0.3457,0.3445,0.3435,0.341,0.3401,0.3378,0.3368,0.3343,0.3326,0.331,0.3287,0.3282,0.3298,0.3265,0.3264,0.3272,0.3297,0.331,0.3313,0.3283,0.3283,0.3283,0.3299,0,0.3582,0.3563,0.3533,0.3523,0.3509,0.3474,0.3465,0.3441,0.3419,0.3403,0.3378,0.336,0.334,0.333,0.3324,0.3297,0.3302,0.3296,0.3272,0.3272,0.3281,0.3316,0.333,0.3347,0.3301,0.3301,0.3301,0,0.3606,0.3585,0.3574,0.3537,0.353,0.3523,0.3497,0.3483,0.3454,0.3438,0.3419,0.3394,0.3379,0.3361,0.3341,0.3337,0.3325,0.331,0.331,0.3307,0.3288,0.3313,0.3351,0.3354,0.3304,0.3303,0.3303,0,0.3649,0.3617,0.3606,0.3594,0.355,0.3546,0.3527,0.3498,0.3484,0.3461,0.3451,0.3427,0.3413,0.3394,0.3362,0.3352,0.3345,0.3324,0.333,0.3331,0.3331,0.3332,0.3368,0.3323,0.3323,0.3323,0.3323,0,0.3677,0.3672,0.3624,0.3618,0.361,0.3574,0.3567,0.3545,0.3519,0.3506,0.3474,0.3462,0.3421,0.3404,0.3379,0.3365,0.3359,0.3345,0.3338,0.3348,0.335,0.334,0.3338,0.3324,0.3324,0.3324,0.3324,0,0.3724,0.3692,0.3677,0.3637,0.3626,0.3623,0.3587,0.3579,0.3554,0.3538,0.3533,0.3493,0.3472,0.3438,0.3406,0.3389,0.338,0.3369,0.339,0.3386,0.3394,0.3393,0.3425,0.3427,0.3382,0.3382,0.3383,0,0.3744,0.3739,0.3698,0.3688,0.367,0.3654,0.364,0.3604,0.359,0.3556,0.3551,0.3527,0.3506,0.3473,0.3441,0.3416,0.3404,0.3417,0.3401,0.341,0.3404,0.3405,0.3404,0.3421,0.3422,0.3423,0.3423,0,0.3784,0.3768,0.3749,0.3725,0.3709,0.3688,0.3665,0.3658,0.3616,0.3602,0.358,0.3564,0.3531,0.3507,0.3478,0.3457,0.3433,0.3428,0.3428,0.3438,0.3451,0.3444,0.34,0.3428,0.3427,0.3427,0.3427,0.3427,0.3818,0.3811,0.3781,0.3761,0.374,0.3718,0.3708,0.3682,0.3663,0.3634,0.3613,0.3592,0.3561,0.3519,0.35,0.3482,0.3471,0.3471,0.3471,0.3472,0.3475,0.3453,0.3476,0.3476,0.3476,0.3476,0.3475,0,0.3856,0.3834,0.3816,0.3785,0.3768,0.3747,0.372,0.3707,0.3689,0.3663,0.3643,0.3616,0.3592,0.3558,0.3531,0.3524,0.3512,0.3518,0.3518,0.3514,0.3487,0.3489,0.3528,0.3528,0.3528,0.3528,0.3528,0.3528,0.3873,0.3861,0.3841,0.3817,0.3795,0.3774,0.3761,0.374,0.3719,0.3691,0.3672,0.3649,0.3619,0.359,0.3566,0.3557,0.3548,0.3558,0.3545,0.352,0.3516,0.3511,0.3513,0.3556,0.3556,0.3573,0.3573,0.3573]},{"header":{"parameterUnit":"m.s-1","parameterCategory":1,"la1":30.2991,"la2":30.254,"lo1":-89.0895,"lo2":-89.0444,"dy":0.0017,"dx":0.0017,"nx":28,"ny":28,"refTime":"2023-10-09T03:00:00:Z","depth":0,"parameterNumber":3,"parameterNumberName":"V-component_of_WINDS"},"data":[0,0,0,0,0,0,0,0,0,0,0,0,0,0,0,0,0,0,0,0,0,0,0,0,0,0,0,0,0,0,0,0,0,0,0,0,0,0,0,0,0,0,0,0,0,0,0,0,0,0,0,0,0,0,0,0,0,0,-1.512,-1.5121,0,-1.5128,-1.5128,-1.5129,-1.5129,-1.5129,-1.5129,-1.5128,-1.5138,-1.5138,-1.5139,0,0,0,0,0,0,0,0,0,0,0,0,0,-1.5107,-1.5107,-1.512,-1.5121,-1.5121,-1.5128,-1.5129,-1.5129,-1.5129,-1.5129,-1.5129,-1.5128,-1.5138,-1.5138,-1.5139,0,0,0,0,0,0,0,0,0,0,0,0,0,-1.5114,-1.5107,-1.512,-1.5122,-1.5122,-1.5128,-1.5129,-1.5129,-1.5129,-1.5129,-1.5128,-1.5128,-1.5138,-1.5138,-1.5139,-1.5145,0,0,-1.514,-1.5141,0,0,0,0,0,0,0,0,-1.5113,-1.5114,-1.5121,-1.5122,-1.5122,-1.5127,-1.5127,-1.5134,-1.5129,-1.5126,-1.5128,-1.5128,-1.5135,-1.5135,-1.5137,-1.5145,-1.5146,-1.514,-1.5141,-1.5141,-1.5141,0,0,0,0,0,0,0,-1.5113,-1.5114,-1.5124,-1.5121,-1.5122,-1.5122,-1.5123,-1.5128,-1.5131,-1.5126,-1.5126,-1.5127,-1.5135,-1.5137,-1.5138,-1.5146,-1.514,-1.5141,-1.5141,-1.5141,-1.516,-1.516,0,0,0,0,0,0,-1.5112,-1.5113,-1.5123,-1.5124,-1.5117,-1.5123,-1.5123,-1.5126,-1.5131,-1.5132,-1.5127,-1.5127,-1.5136,-1.5137,-1.5138,-1.5146,-1.5141,-1.5141,-1.5142,-1.516,-1.516,-1.516,0,0,0,0,0,0,-1.5111,-1.5113,-1.5123,-1.5119,-1.512,-1.5123,-1.5126,-1.5126,-1.5128,-1.5132,-1.5133,-1.5129,-1.5136,-1.5137,-1.5143,-1.5146,-1.5142,-1.5142,-1.516,-1.516,-1.516,-1.5161,0,0,0,0,0,0,-1.5111,-1.5113,-1.5115,-1.5119,-1.512,-1.5128,-1.5126,-1.5126,-1.5129,-1.5129,-1.5133,-1.5134,-1.5136,-1.5142,-1.5144,-1.5147,-1.5143,-1.516,-1.516,-1.516,-1.5161,-1.5162,-1.5162,0,0,0,0,0,-1.5111,-1.5115,-1.5115,-1.5116,-1.5123,-1.5128,-1.5129,-1.513,-1.5129,-1.5131,-1.5134,-1.5134,-1.5146,-1.5143,-1.5145,-1.5148,-1.5159,-1.516,-1.516,-1.5161,-1.5161,-1.5162,0,0,0,0,0,0,-1.5111,-1.5115,-1.5115,-1.5121,-1.5124,-1.5128,-1.5131,-1.5131,-1.5135,-1.5135,-1.5137,-1.5138,-1.5144,-1.5147,-1.5144,-1.5154,-1.5152,-1.5153,-1.5152,-1.5153,-1.5153,-1.5153,-1.5143,0,0,0,0,0,-1.5112,-1.5116,-1.5119,-1.5124,-1.5125,-1.5128,-1.513,-1.5131,-1.5135,-1.5136,-1.5139,-1.5143,-1.5147,-1.515,-1.5155,-1.5162,-1.5163,-1.5164,-1.5165,-1.5165,-1.5166,-1.517,-1.5171,-1.5162,-1.5162,-1.5162,0,0,-1.5114,-1.5117,-1.5119,-1.5124,-1.5126,-1.513,-1.5129,-1.5133,-1.5136,-1.5137,-1.5143,-1.5145,-1.515,-1.5156,-1.5159,-1.5158,-1.5169,-1.5166,-1.5166,-1.5167,-1.5171,-1.5171,-1.5172,-1.5162,-1.5162,-1.5162,0,0,-1.5119,-1.5121,-1.5125,-1.5128,-1.5132,-1.5133,-1.5134,-1.5138,-1.514,-1.5146,-1.5146,-1.515,-1.5158,-1.5161,-1.5164,-1.5171,-1.5171,-1.5172,-1.5175,-1.5179,-1.5179,-1.518,-1.5182,-1.5183,-1.5173,-1.5173,-1.5173,0,-1.5121,-1.5126,-1.5128,-1.5132,-1.5134,-1.5135,-1.5139,-1.5142,-1.5147,-1.5149,-1.5148,-1.5158,-1.5161,-1.5168,-1.517,-1.5172,-1.5173,-1.5171,-1.5179,-1.518,-1.518,-1.5183,-1.5184,-1.5173,-1.5173,-1.5173,-1.5173,0,-1.5128,-1.5132,-1.5135,-1.514,-1.5143,-1.5147,-1.5149,-1.5152,-1.5153,-1.5155,-1.5161,-1.5165,-1.517,-1.5172,-1.5173,-1.518,-1.5179,-1.5178,-1.5177,-1.5181,-1.5184,-1.5185,-1.5173,-1.5173,-1.5173,-1.5173,0,0,-1.5134,-1.5139,-1.514,-1.5143,-1.5147,-1.515,-1.5155,-1.5159,-1.5162,-1.5166,-1.517,-1.5176,-1.5176,-1.5179,-1.5181,-1.5184,-1.5189,-1.5183,-1.5183,-1.5184,-1.5197,-1.5197,-1.5198,-1.519,-1.519,-1.519,-1.5197,0,-1.514,-1.5147,-1.5149,-1.5155,-1.5159,-1.516,-1.5164,-1.5167,-1.5169,-1.5173,-1.5176,-1.5181,-1.518,-1.5181,-1.5185,-1.5188,-1.5192,-1.5187,-1.5194,-1.5194,-1.5193,-1.52,-1.52,-1.5206,-1.5198,-1.5198,-1.5198,0,-1.5147,-1.5151,-1.5158,-1.5162,-1.5163,-1.5167,-1.5171,-1.5175,-1.5179,-1.518,-1.5184,-1.5185,-1.519,-1.5188,-1.5196,-1.5193,-1.5196,-1.5198,-1.5198,-1.5199,-1.5196,-1.5201,-1.5208,-1.5209,-1.5199,-1.5199,-1.5199,0,-1.5151,-1.5157,-1.5162,-1.5164,-1.5169,-1.5171,-1.5174,-1.5178,-1.518,-1.5185,-1.5186,-1.5191,-1.5194,-1.5198,-1.5201,-1.5199,-1.5208,-1.5207,-1.521,-1.521,-1.5212,-1.5212,-1.522,-1.5214,-1.5214,-1.5214,-1.5214,0,-1.5157,-1.5161,-1.5164,-1.5167,-1.5172,-1.5174,-1.5179,-1.5181,-1.5185,-1.5189,-1.519,-1.5194,-1.5197,-1.5201,-1.5203,-1.521,-1.5211,-1.5213,-1.5213,-1.5212,-1.5212,-1.5214,-1.5214,-1.5214,-1.5214,-1.5214,-1.5214,0,-1.5162,-1.5164,-1.5169,-1.5173,-1.5174,-1.5178,-1.5182,-1.5185,-1.5187,-1.5192,-1.5193,-1.5197,-1.5202,-1.5205,-1.5212,-1.5214,-1.5221,-1.5221,-1.5219,-1.5219,-1.5223,-1.5222,-1.5233,-1.5234,-1.5227,-1.5227,-1.5227,0,-1.5166,-1.5169,-1.5173,-1.5176,-1.5178,-1.5182,-1.5184,-1.5187,-1.519,-1.5194,-1.5197,-1.5203,-1.5207,-1.5215,-1.5219,-1.5224,-1.5225,-1.5228,-1.5226,-1.5225,-1.5225,-1.5225,-1.5226,-1.5229,-1.5229,-1.5229,-1.5229,0,-1.5172,-1.5173,-1.5177,-1.5181,-1.5184,-1.5187,-1.5191,-1.5193,-1.5196,-1.5199,-1.5204,-1.5208,-1.5214,-1.522,-1.5225,-1.5228,-1.5229,-1.523,-1.5231,-1.523,-1.5229,-1.523,-1.522,-1.5229,-1.5229,-1.5229,-1.5229,-1.5229,-1.5177,-1.518,-1.5183,-1.5187,-1.519,-1.5193,-1.5197,-1.5199,-1.5203,-1.5209,-1.521,-1.5215,-1.522,-1.5227,-1.523,-1.5235,-1.5235,-1.5236,-1.5237,-1.5237,-1.5237,-1.5228,-1.5236,-1.5236,-1.5236,-1.5236,-1.5236,0,-1.5184,-1.5186,-1.519,-1.5194,-1.5198,-1.5198,-1.5201,-1.5205,-1.5209,-1.5213,-1.5217,-1.5223,-1.5229,-1.5232,-1.5238,-1.5241,-1.5242,-1.5243,-1.5242,-1.5243,-1.5237,-1.5236,-1.5242,-1.5242,-1.5242,-1.5242,-1.5242,-1.5242,-1.5188,-1.5193,-1.5194,-1.5201,-1.5203,-1.5208,-1.521,-1.5213,-1.5216,-1.5223,-1.5227,-1.5229,-1.5234,-1.5239,-1.5245,-1.5246,-1.5248,-1.5249,-1.525,-1.5244,-1.5244,-1.5243,-1.5242,-1.5249,-1.5249,-1.5255,-1.5255,-1.5255]}]]